Terminal Aerodrome Forecast
Issued by NWS

Home | Current Version | Previous Version | Text Only | Print | Product List | Glossary On
Versions: 1 2 3 4 5 6 7 8 9 10 11 12 13 14 15 16 17 18
908
FTUS46 KSEW 072134 AAA
TAFHQM
TAF AMD
KHQM 072134Z 0722/0818 05008KT P6SM VCSH BKN060 OVC120
     FM080000 06008KT P6SM SCT080 BKN120 BKN200
     FM080600 06008KT P6SM VCFG SCT120 BKN200
     FM081200 06008KT 4SM MIFG SCT200
      TEMPO 0813/0817 2SM MIFG=

USA.gov is the U.S. government's official web portal to all federal, state and local government web resources and services.